Time,TemperatureF,DewpointF,PressureIn,WindDirection,WindDirectionDegrees,WindSpeedMPH,WindSpeedGustMPH,Humidity,HourlyPrecipIn,Conditions,Clouds,dailyrainin,SoftwareType,DateUTC
2013-07-30 00:36:00,66.0,62.0,30.22,NE,44,0.0,-999.0,87,-99.99,,,0.00,weatherlink.com 1.10,2013-07-30 05:36:00,
2013-07-30 00:51:00,66.2,62.0,30.22,NE,44,0.0,-999.0,87,-99.99,,,0.00,weatherlink.com 1.10,2013-07-30 05:51:00,
2013-07-30 01:06:00,65.6,62.0,30.21,NE,44,0.0,-999.0,87,-99.99,,,0.00,weatherlink.com 1.10,2013-07-30 06:06:00,
2013-07-30 01:21:00,65.0,61.0,30.21,NE,44,0.0,-999.0,88,-99.99,,,0.00,weatherlink.com 1.10,2013-07-30 06:21:00,
2013-07-30 01:36:00,64.3,61.0,30.21,NE,44,0.0,-999.0,90,-99.99,,,0.00,weatherlink.com 1.10,2013-07-30 06:36:00,
2013-07-30 01:51:00,63.9,61.0,30.21,NE,44,0.0,-999.0,91,-99.99,,,0.00,weatherlink.com 1.10,2013-07-30 06:51:00,
2013-07-30 02:06:00,63.3,61.0,30.21,NE,44,0.0,-999.0,91,-99.99,,,0.00,weatherlink.com 1.10,2013-07-30 07:06:00,
2013-07-30 02:21:00,63.1,61.0,30.21,NE,44,0.0,-999.0,93,-99.99,,,0.00,weatherlink.com 1.10,2013-07-30 07:21:00,
2013-07-30 02:36:00,63.0,61.0,30.21,NE,44,0.0,-999.0,92,-99.99,,,0.00,weatherlink.com 1.10,2013-07-30 07:36:00,
2013-07-30 02:51:00,62.6,61.0,30.21,NE,44,0.0,-999.0,93,-99.99,,,0.00,weatherlink.com 1.10,2013-07-30 07:51:00,
2013-07-30 03:06:00,62.0,60.0,30.21,NE,44,0.0,-999.0,93,-99.99,,,0.00,weatherlink.com 1.10,2013-07-30 08:06:00,
2013-07-30 03:21:00,62.1,60.0,30.21,NE,44,0.0,-999.0,94,-99.99,,,0.00,weatherlink.com 1.10,2013-07-30 08:21:00,
2013-07-30 03:36:00,62.4,61.0,30.22,NE,44,0.0,-999.0,94,-99.99,,,0.00,weatherlink.com 1.10,2013-07-30 08:36:00,
2013-07-30 03:51:00,62.3,61.0,30.22,NE,44,0.0,-999.0,94,-99.99,,,0.00,weatherlink.com 1.10,2013-07-30 08:51:00,
2013-07-30 04:06:00,61.9,60.0,30.22,NE,44,0.0,-999.0,94,-99.99,,,0.00,weatherlink.com 1.10,2013-07-30 09:06:00,
2013-07-30 04:21:00,61.9,60.0,30.23,NE,44,0.0,-999.0,94,-99.99,,,0.00,weatherlink.com 1.10,2013-07-30 09:21:00,
2013-07-30 04:36:00,61.7,60.0,30.23,NE,44,0.0,-999.0,94,-99.99,,,0.00,weatherlink.com 1.10,2013-07-30 09:36:00,
2013-07-30 04:51:00,61.9,60.0,30.23,NE,44,0.0,-999.0,94,-99.99,,,0.00,weatherlink.com 1.10,2013-07-30 09:51:00,
2013-07-30 05:06:00,62.2,60.0,30.23,NE,44,0.0,-999.0,93,-99.99,,,0.00,weatherlink.com 1.10,2013-07-30 10:06:00,
2013-07-30 05:21:00,61.9,60.0,30.24,NE,44,0.0,-999.0,93,-99.99,,,0.00,weatherlink.com 1.10,2013-07-30 10:21:00,
2013-07-30 05:36:00,61.8,60.0,30.24,NE,44,0.0,-999.0,93,-99.99,,,0.00,weatherlink.com 1.10,2013-07-30 10:36:00,
2013-07-30 05:51:00,61.5,60.0,30.24,NE,44,0.0,-999.0,94,-99.99,,,0.00,weatherlink.com 1.10,2013-07-30 10:51:00,
2013-07-30 06:06:00,61.5,60.0,30.25,NE,44,0.0,-999.0,94,-99.99,,,0.00,weatherlink.com 1.10,2013-07-30 11:06:00,
2013-07-30 06:21:00,62.1,61.0,30.25,NE,44,0.0,-999.0,95,-99.99,,,0.00,weatherlink.com 1.10,2013-07-30 11:21:00,
2013-07-30 06:36:00,63.1,61.0,30.25,NE,44,0.0,-999.0,94,-99.99,,,0.00,weatherlink.com 1.10,2013-07-30 11:36:00,
2013-07-30 06:51:00,64.7,62.0,30.24,NE,44,0.0,-999.0,92,-99.99,,,0.00,weatherlink.com 1.10,2013-07-30 11:51:00,
2013-07-30 07:06:00,66.1,63.0,30.25,ESE,105,0.0,-999.0,88,-99.99,,,0.00,weatherlink.com 1.10,2013-07-30 12:06:00,
2013-07-30 07:21:00,66.7,63.0,30.25,East,95,0.0,-999.0,87,-99.99,,,0.00,weatherlink.com 1.10,2013-07-30 12:21:00,
2013-07-30 07:36:00,67.5,63.0,30.24,East,100,0.0,-999.0,86,-99.99,,,0.00,weatherlink.com 1.10,2013-07-30 12:36:00,
2013-07-30 07:51:00,69.7,64.0,30.25,East,87,0.0,-999.0,82,-99.99,,,0.00,weatherlink.com 1.10,2013-07-30 12:51:00,
2013-07-30 08:06:00,71.9,65.0,30.25,East,88,0.0,-999.0,79,-99.99,,,0.00,weatherlink.com 1.10,2013-07-30 13:06:00,
2013-07-30 08:22:00,73.0,65.0,30.26,ESE,123,0.0,-999.0,75,-99.99,,,0.00,weatherlink.com 1.10,2013-07-30 13:22:00,
2013-07-30 08:36:00,73.0,66.0,30.26,SW,222,0.0,-999.0,78,-99.99,,,0.00,weatherlink.com 1.10,2013-07-30 13:36:00,
2013-07-30 08:51:00,72.8,66.0,30.25,WSW,242,2.0,-999.0,79,-99.99,,,0.00,weatherlink.com 1.10,2013-07-30 13:51:00,
2013-07-30 09:07:00,73.5,65.0,30.25,SW,227,0.0,-999.0,75,-99.99,,,0.00,weatherlink.com 1.10,2013-07-30 14:07:00,
2013-07-30 09:22:00,76.5,66.0,30.24,SE,130,0.0,-999.0,69,-99.99,,,0.00,weatherlink.com 1.10,2013-07-30 14:22:00,
2013-07-30 09:36:00,78.6,65.0,30.24,SE,132,0.0,-999.0,63,-99.99,,,0.00,weatherlink.com 1.10,2013-07-30 14:36:00,
2013-07-30 09:52:00,80.0,65.0,30.24,ESE,123,0.0,-999.0,60,-99.99,,,0.00,weatherlink.com 1.10,2013-07-30 14:52:00,
2013-07-30 10:07:00,80.9,66.0,30.24,ESE,123,0.0,-999.0,61,-99.99,,,0.00,weatherlink.com 1.10,2013-07-30 15:07:00,
2013-07-30 10:22:00,81.1,66.0,30.24,SSE,165,0.0,-999.0,60,-99.99,,,0.00,weatherlink.com 1.10,2013-07-30 15:22:00,
2013-07-30 10:37:00,80.9,67.0,30.23,South,176,0.0,-999.0,62,-99.99,,,0.00,weatherlink.com 1.10,2013-07-30 15:37:00,
2013-07-30 10:52:00,80.9,64.0,30.23,SSW,209,0.0,-999.0,56,-99.99,,,0.00,weatherlink.com 1.10,2013-07-30 15:52:00,
2013-07-30 11:07:00,81.7,64.0,30.23,SSW,196,0.0,-999.0,56,-99.99,,,0.00,weatherlink.com 1.10,2013-07-30 16:07:00,
2013-07-30 11:22:00,81.8,66.0,30.23,SSW,212,0.0,-999.0,59,-99.99,,,0.00,weatherlink.com 1.10,2013-07-30 16:22:00,
2013-07-30 11:37:00,82.8,67.0,30.23,SW,219,4.0,-999.0,60,-99.99,,,0.00,weatherlink.com 1.10,2013-07-30 16:37:00,
2013-07-30 11:52:00,83.1,66.0,30.23,SW,219,0.0,-999.0,56,-99.99,,,0.00,weatherlink.com 1.10,2013-07-30 16:52:00,
2013-07-30 12:07:00,83.7,66.0,30.22,WSW,238,0.0,-999.0,56,-99.99,,,0.00,weatherlink.com 1.10,2013-07-30 17:07:00,
2013-07-30 12:22:00,84.1,67.0,30.22,North,5,0.0,-999.0,56,-99.99,,,0.00,weatherlink.com 1.10,2013-07-30 17:22:00,
2013-07-30 12:37:00,84.6,67.0,30.21,SSW,213,0.0,-999.0,56,-99.99,,,0.00,weatherlink.com 1.10,2013-07-30 17:37:00,
2013-07-30 12:52:00,84.9,68.0,30.21,SW,227,6.0,-999.0,58,-99.99,,,0.00,weatherlink.com 1.10,2013-07-30 17:52:00,
2013-07-30 13:07:00,85.4,68.0,30.21,SW,214,3.0,-999.0,56,-99.99,,,0.00,weatherlink.com 1.10,2013-07-30 18:07:00,
2013-07-30 13:22:00,85.7,68.0,30.20,SSW,203,6.0,-999.0,55,-99.99,,,0.00,weatherlink.com 1.10,2013-07-30 18:22:00,
2013-07-30 13:37:00,85.8,68.0,30.20,WSW,244,5.0,-999.0,56,-99.99,,,0.00,weatherlink.com 1.10,2013-07-30 18:37:00,
2013-07-30 13:52:00,87.4,70.0,30.20,South,179,0.0,-999.0,56,-99.99,,,0.00,weatherlink.com 1.10,2013-07-30 18:52:00,
2013-07-30 14:07:00,85.9,69.0,30.19,SSW,211,7.0,-999.0,58,-99.99,,,0.00,weatherlink.com 1.10,2013-07-30 19:07:00,
2013-07-30 14:22:00,86.1,69.0,30.18,SW,232,0.0,-999.0,57,-99.99,,,0.00,weatherlink.com 1.10,2013-07-30 19:22:00,
2013-07-30 14:37:00,87.3,69.0,30.18,SW,231,0.0,-999.0,54,-99.99,,,0.00,weatherlink.com 1.10,2013-07-30 19:37:00,
2013-07-30 14:52:00,87.2,70.0,30.18,SSW,205,0.0,-999.0,57,-99.99,,,0.00,weatherlink.com 1.10,2013-07-30 19:52:00,
2013-07-30 15:07:00,87.1,69.0,30.17,SW,217,0.0,-999.0,55,-99.99,,,0.00,weatherlink.com 1.10,2013-07-30 20:07:00,
2013-07-30 15:22:00,88.9,70.0,30.17,SSW,211,0.0,-999.0,54,-99.99,,,0.00,weatherlink.com 1.10,2013-07-30 20:22:00,
2013-07-30 15:37:00,88.7,68.0,30.16,SSW,211,0.0,-999.0,51,-99.99,,,0.00,weatherlink.com 1.10,2013-07-30 20:37:00,
2013-07-30 15:52:00,87.6,70.0,30.16,West,271,0.0,-999.0,57,-99.99,,,0.00,weatherlink.com 1.10,2013-07-30 20:52:00,
2013-07-30 16:07:00,87.4,70.0,30.16,WSW,241,5.0,-999.0,56,-99.99,,,0.00,weatherlink.com 1.10,2013-07-30 21:07:00,
2013-07-30 16:22:00,88.9,69.0,30.16,SW,231,4.0,-999.0,52,-99.99,,,0.00,weatherlink.com 1.10,2013-07-30 21:22:00,
2013-07-30 16:52:00,87.5,70.0,30.15,WSW,240,4.0,-999.0,56,-99.99,,,0.00,weatherlink.com 1.10,2013-07-30 21:52:00,
2013-07-30 17:07:00,87.1,69.0,30.15,WSW,239,0.0,-999.0,56,-99.99,,,0.00,weatherlink.com 1.10,2013-07-30 22:07:00,
2013-07-30 17:23:00,87.1,70.0,30.14,WSW,239,0.0,-999.0,57,-99.99,,,0.00,weatherlink.com 1.10,2013-07-30 22:23:00,
2013-07-30 17:37:00,87.2,72.0,30.14,WSW,239,0.0,-999.0,60,-99.99,,,0.00,weatherlink.com 1.10,2013-07-30 22:37:00,
2013-07-30 17:52:00,87.4,70.0,30.14,WSW,239,0.0,-999.0,57,-99.99,,,0.00,weatherlink.com 1.10,2013-07-30 22:52:00,
2013-07-30 18:07:00,86.9,69.0,30.13,WSW,239,0.0,-999.0,56,-99.99,,,0.00,weatherlink.com 1.10,2013-07-30 23:07:00,
2013-07-30 18:22:00,86.2,71.0,30.13,WSW,239,0.0,-999.0,60,-99.99,,,0.00,weatherlink.com 1.10,2013-07-30 23:22:00,
2013-07-30 18:37:00,85.4,74.0,30.13,WSW,239,0.0,-999.0,69,-99.99,,,0.00,weatherlink.com 1.10,2013-07-30 23:37:00,
2013-07-30 18:53:00,84.2,73.0,30.13,WSW,239,0.0,-999.0,68,-99.99,,,0.00,weatherlink.com 1.10,2013-07-30 23:53:00,
2013-07-30 19:08:00,82.8,75.0,30.12,WSW,239,0.0,-999.0,78,-99.99,,,0.00,weatherlink.com 1.10,2013-07-31 00:08:00,
2013-07-30 19:23:00,81.2,75.0,30.13,WSW,239,0.0,-999.0,80,-99.99,,,0.00,weatherlink.com 1.10,2013-07-31 00:23:00,
2013-07-30 19:38:00,80.3,74.0,30.13,WSW,239,0.0,-999.0,82,-99.99,,,0.00,weatherlink.com 1.10,2013-07-31 00:38:00,
2013-07-30 19:53:00,79.3,74.0,30.13,WSW,239,0.0,-999.0,83,-99.99,,,0.00,weatherlink.com 1.10,2013-07-31 00:53:00,
2013-07-30 20:08:00,78.9,73.0,30.14,WSW,239,0.0,-999.0,83,-99.99,,,0.00,weatherlink.com 1.10,2013-07-31 01:08:00,
2013-07-30 20:23:00,78.8,73.0,30.14,WSW,239,0.0,-999.0,83,-99.99,,,0.00,weatherlink.com 1.10,2013-07-31 01:23:00,
2013-07-30 20:38:00,78.5,73.0,30.15,WSW,239,0.0,-999.0,82,-99.99,,,0.00,weatherlink.com 1.10,2013-07-31 01:38:00,
2013-07-30 20:53:00,78.0,74.0,30.16,WSW,239,0.0,-999.0,87,-99.99,,,0.00,weatherlink.com 1.10,2013-07-31 01:53:00,
2013-07-30 21:08:00,76.8,73.0,30.16,WSW,239,0.0,-999.0,89,-99.99,,,0.00,weatherlink.com 1.10,2013-07-31 02:08:00,
2013-07-30 21:23:00,75.9,73.0,30.16,WSW,239,0.0,-999.0,91,-99.99,,,0.00,weatherlink.com 1.10,2013-07-31 02:23:00,
2013-07-30 21:38:00,75.4,73.0,30.15,WSW,239,0.0,-999.0,91,-99.99,,,0.00,weatherlink.com 1.10,2013-07-31 02:38:00,
2013-07-30 21:53:00,75.1,72.0,30.15,WSW,239,0.0,-999.0,90,-99.99,,,0.00,weatherlink.com 1.10,2013-07-31 02:53:00,
2013-07-30 22:08:00,75.8,72.0,30.15,WSW,239,0.0,-999.0,88,-99.99,,,0.00,weatherlink.com 1.10,2013-07-31 03:08:00,
2013-07-30 22:23:00,76.1,71.0,30.15,WSW,239,0.0,-999.0,85,-99.99,,,0.00,weatherlink.com 1.10,2013-07-31 03:23:00,
2013-07-30 22:38:00,75.8,72.0,30.16,West,263,3.0,-999.0,87,-99.99,,,0.00,weatherlink.com 1.10,2013-07-31 03:38:00,
2013-07-30 22:53:00,75.0,72.0,30.16,WSW,250,0.0,-999.0,90,-99.99,,,0.00,weatherlink.com 1.10,2013-07-31 03:53:00,
2013-07-30 23:08:00,74.0,71.0,30.15,SSW,204,0.0,-999.0,91,-99.99,,,0.00,weatherlink.com 1.10,2013-07-31 04:08:00,
2013-07-30 23:23:00,73.5,71.0,30.16,SSW,204,0.0,-999.0,92,-99.99,,,0.00,weatherlink.com 1.10,2013-07-31 04:23:00,
2013-07-30 23:38:00,72.9,70.0,30.14,SSW,204,0.0,-999.0,91,-99.99,,,0.00,weatherlink.com 1.10,2013-07-31 04:38:00,
2013-07-30 23:53:00,72.5,70.0,30.15,SSW,203,0.0,-999.0,92,-99.99,,,0.00,weatherlink.com 1.10,2013-07-31 04:53:00,